User: anonymous   Login
Location: DARK SKY Beskydy - Park tmavé oblohy, www.darkskybeskydy.cz
(49.4926°N, 18.5016°E)
Time: 02:15:27
(UTC+02:00)
Language:

NOAA 18 - Orbit

View from above orbital plane
View from above orbital plane
View from above satellite
View from above satellite

Ground track
Ground track

The orbit data is extracted from the following two-line orbital elements,

1 28654U 05018A   24109.80634839  .00000509  00000-0  29544-3 0  9997
2 28654  98.8754 187.2628 0013557 228.1677 131.8338 14.13171382974879
Epoch (UTC): 18 April 2024 19:21:08
Eccentricity: 0.0013557
inclination: 98.8754°
perigee height: 839 km
apogee height: 858 km
right ascension of ascending node: 187.2628°
argument of perigee: 228.1677°
revolutions per day: 14.13171382
mean anomaly at epoch: 131.8338°
orbit number at epoch: 97487

The dashed part of the orbit path shows where the satellite is in the earth's shadow,  

DLR